Location: Colonia Mina de C?rbuni
(46.1667°N, 22.7167°E)
Time: 03:43:03
(UTC+00:00)

Courier 1B Rocket - Visible Passes

Search period start: 22 April 2024 00:00
Search period end: 02 May 2024 00:00
Orbit: 920 x 1201 km, 28.2° (Epoch: 21 April)

Date Brightness Start Highest point End Pass type
(mag) Time Alt. Az. Time Alt. Az. Time Alt. Az.
22 Apr 7.1 01:48:01 11° S 01:50:55 14° SSE 01:54:26 10° SE visible
23 Apr 7.2 00:50:25 11° SSE 00:50:25 11° SSE 00:52:19 10° SE visible
23 Apr 6.9 02:37:37 10° SW 02:42:23 18° S 02:47:00 10° SE visible
24 Apr 6.9 01:39:08 15° S 01:41:29 17° S 01:45:55 10° SE visible
25 Apr 7.1 00:41:31 14° SSE 00:41:31 14° SSE 00:44:27 10° SE visible
25 Apr 6.8 02:27:53 10° SW 02:32:57 19° S 02:37:52 10° SE visible
26 Apr 6.7 01:30:16 17° S 01:32:01 19° S 01:36:58 10° SE visible
27 Apr 7.0 00:32:40 16° SSE 00:32:40 16° SSE 00:35:46 10° SE visible
27 Apr 6.8 02:19:00 12° SW 02:23:30 19° S 02:28:30 10° SE visible
28 Apr 6.6 01:21:28 19° S 01:22:33 20° S 01:27:44 10° SE visible
29 Apr 7.0 00:23:57 17° SSE 00:23:57 17° SSE 00:26:43 10° SE visible
29 Apr 6.8 02:10:18 13° SW 02:14:02 18° S 02:18:51 10° SSE visible
30 Apr 6.6 01:12:51 20° S 01:13:04 20° S 01:18:16 10° SE visible
01 May 7.1 00:15:29 15° SSE 00:15:29 15° SSE 00:17:24 10° SE visible
01 May 6.8 02:01:51 13° SW 02:04:32 16° SSW 02:08:52 10° SSE visible
